Regional Weather Roundup
Issued by NWS

Home | Current Version | Previous Version | Graphics & Text | Print | Product List | Glossary On
Versions: 1 2 3 4 5 6 7 8 9 10 11 12 13 14 15 16 17 18 19 20 21 22 23 24 25 26 27
000
ASUS45 KCYS 210010
RWRWY

WYOMING REGIONAL WEATHER ROUNDUP
NATIONAL WEATHER SERVICE CHEYENNE WY
600 PM MDT SUN AUG 20 2017

NOTE:  "FAIR" INDICATES FEW OR NO CLOUDS BELOW 12,000 FEET
WITH NO SIGNIFICANT WEATHER AND/OR OBSTRUCTIONS TO VISIBILITY.

WYZ001-210100-
YELLOWSTONE NATIONAL PARK

CITY           SKY/WX    TMP DP  RH WIND       PRES   REMARKS
LK YELLOWSTONE   N/A     70  24  17 W8        30.24S
6HR MIN TEMP:  64; 6HR MAX TEMP:  72;

W YELLOWSTONE  NOT AVBL

$$
WYZ002>013-054>058-071-098>099-210100-
NORTHERN WYOMING

CITY           SKY/WX    TMP DP  RH WIND       PRES   REMARKS
JACKSON        FAIR      78  25  14 SW15G22   30.14S
CODY           FAIR      74  43  32 N13       30.04S
GREYBULL       FAIR      87  36  16 N9        29.91F
6HR MIN TEMP:  74; 6HR MAX TEMP:  89;

WORLAND        FAIR      85  39  19 N9        29.92S
6HR MIN TEMP:  72; 6HR MAX TEMP:  86;

SHERIDAN       FAIR      85  41  21 NW14      29.95R
6HR MIN TEMP:  77; 6HR MAX TEMP:  88;

BUFFALO        FAIR      81  37  20 N15       30.01R
6HR MIN TEMP:  78; 6HR MAX TEMP:  89;

GILLETTE       FAIR      89  28  11 NW8       29.91F
6HR MIN TEMP:  76; 6HR MAX TEMP:  92;

HULETT         FAIR      79  46  31 E10       29.97S
NEWCASTLE      FAIR      81  43  26 SE22G28   29.98F

$$
WYZ014>020-022>026-101>103-210100-
CENTRAL WYOMING

CITY           SKY/WX    TMP DP  RH WIND       PRES   REMARKS
BIG PINEY      FAIR      80  30  16 NW14G25   30.17S
6HR MIN TEMP:  74; 6HR MAX TEMP:  83;

PINEDALE       FAIR      77  28  16 NW17G29   30.18S
DUBOIS         FAIR      73  21  14 NW18G31   30.15S
LANDER           N/A    N/A N/A N/A MISG      30.01R
RIVERTON       FAIR      89  23   9 NW13      29.99S
6HR MIN TEMP:  76; 6HR MAX TEMP:  89;

CASPER         LGT RAIN  83  28  13 SW29G56   30.03R SQUALL
6HR MIN TEMP:  77; 6HR MAX TEMP:  91;

DOUGLAS        FAIR      83  49  30 SE17      30.00F
6HR MIN TEMP:  76; 6HR MAX TEMP:  86;


$$
WYZ021-027>030-104>119-210100-
SOUTHERN WYOMING

CITY           SKY/WX    TMP DP  RH WIND       PRES   REMARKS
EVANSTON       FAIR      80  30  16 NW17G26   30.19S
6HR MIN TEMP:  78; 6HR MAX TEMP:  85;

KEMMERER         N/A     79  28  15 W13G22    30.20S
FORT BRIDGER   LGT RAIN  76  33  21 NE3       30.22S
ROCK SPRINGS   CLOUDY    72  35  25 SW7       30.18F
6HR MIN TEMP:  71; 6HR MAX TEMP:  85; 6HR PCP: TRACE;

RAWLINS        FAIR      78  32  18 W7        30.17R
6HR MIN TEMP:  78; 6HR MAX TEMP:  85;

SARATOGA       MOCLDY    81  34  18 W5G18     30.18R
LARAMIE        FAIR      71  38  29 S22G28    30.20F
6HR MIN TEMP:  71; 6HR MAX TEMP:  83;

CHEYENNE       PTSUNNY   78  43  28 S10       30.15R
6HR MIN TEMP:  75; 6HR MAX TEMP:  84;

TORRINGTON     FAIR      81  55  40 SE13G20   29.98S
6HR MIN TEMP:  77; 6HR MAX TEMP:  87;

PINE BLUFFS    FAIR      81  48  32 E10G16    30.08S

$$




USA.gov is the U.S. government's official web portal to all federal, state and local government web resources and services.